CW6617 Weather Reports


time (UTC)temp
C
wind
direction
speed
KPH
gust
KPH
rain 1hr
cm
rain 24hr
cm
rain mn
cm
humidity
%
barometer
mb
20260904204204 15 240 0.0 0.0 0.00 0.13 0.13 80 1018.7
20260904203704 15 240 0.0 1.6 0.00 0.13 0.13 80 1018.7
20260904203203 15 240 1.6 1.6 0.00 0.13 0.13 80 1018.6
20260904201704 15 242 1.6 8.0 0.00 0.13 0.13 79 1018.6
20260904201204 15 254 1.6 4.8 0.00 0.13 0.13 79 1018.5
20260904200704 15 262 1.6 3.2 0.00 0.13 0.13 79 1018.6
20260904200204 16 258 3.2 14.5 0.00 0.13 0.13 79 1018.6
20260904194203 16 293 3.2 11.3 0.00 0.13 0.13 78 1018.5
20260904193705 16 257 1.6 8.0 0.00 0.13 0.13 77 1018.3
20260904193204 16 249 3.2 11.3 0.00 0.13 0.13 77 1018.2
20260904191704 16 282 3.2 9.7 0.00 0.13 0.13 76 1017.9
20260904190704 16 246 3.2 8.0 0.00 0.13 0.13 75 1017.5
20260904184704 17 215 1.6 11.3 0.00 0.13 0.13 74 1017.4
20260904184204 17 246 3.2 9.7 0.00 0.13 0.13 74 1017.2
20260904183204 17 269 8.0 19.3 0.00 0.13 0.13 74 1017.1
20260904181704 17 290 3.2 16.1 0.00 0.13 0.13 73 1016.8
20260904174704 17 263 4.8 11.3 0.00 0.13 0.13 69 1016.6
20260904174204 18 278 3.2 12.9 0.00 0.13 0.13 69 1016.5
20260904173705 18 212 3.2 16.1 0.00 0.13 0.13 68 1016.6
20260904173204 18 295 3.2 14.5 0.00 0.13 0.13 68 1016.6
20260904171704 18 250 3.2 12.9 0.00 0.13 0.13 66 1016.4
20260904170703 18 203 1.6 14.5 0.00 0.13 0.13 66 1016.4
20260904170203 18 266 4.8 16.1 0.00 0.13 0.13 66 1016.3
20260904164705 18 239 4.8 16.1 0.00 0.13 0.13 65 1016.2
20260904164204 18 280 8.0 14.5 0.00 0.13 0.13 66 1016.3
20260904163704 18 272 3.2 11.3 0.00 0.13 0.13 66 1016.2
20260904163204 18 286 4.8 16.1 0.00 0.13 0.13 66 1016.1
20260904161704 18 281 6.4 12.9 0.00 0.13 0.13 67 1015.9
20260904161204 18 195 4.8 11.3 0.00 0.13 0.13 67 1015.9
20260904160203 19 248 4.8 19.3 0.00 0.13 0.13 66 1015.8
20260904154703 19 264 12.9 20.9 0.00 0.13 0.13 64 1015.7
20260904154204 19 261 4.8 14.5 0.00 0.13 0.13 64 1015.7
20260904153704 20 286 8.0 19.3 0.00 0.13 0.13 63 1015.7
20260904151703 20 279 6.4 19.3 0.00 0.13 0.13 63 1015.6
20260904151204 20 270 12.9 25.7 0.00 0.13 0.13 62 1015.7
20260904150703 20 269 8.0 19.3 0.00 0.13 0.13 64 1015.6
20260904150204 20 227 8.0 20.9 0.00 0.13 0.13 63 1015.6
20260904144204 20 248 8.0 19.3 0.00 0.13 0.13 63 1015.3
20260904143704 20 246 8.0 16.1 0.00 0.13 0.13 63 1015.3
20260904143204 19 284 8.0 20.9 0.00 0.13 0.13 65 1015.2
20260904141704 19 263 3.2 14.5 0.00 0.13 0.13 64 1015.4
20260904141204 19 218 4.8 12.9 0.00 0.13 0.13 64 1015.1
20260904140704 19 287 6.4 16.1 0.00 0.13 0.13 63 1015.2
20260904140204 19 258 4.8 16.1 0.00 0.13 0.13 64 1015.1
20260904134703 19 253 4.8 11.3 0.00 0.13 0.13 64 1015.2
20260904134204 19 250 4.8 19.3 0.00 0.13 0.13 64 1015.2
20260904133705 20 215 4.8 20.9 0.00 0.13 0.13 63 1015.3
20260904133204 20 205 4.8 24.1 0.00 0.13 0.13 64 1015.1
20260904131703 20 258 8.0 22.5 0.00 0.13 0.13 64 1015.0
20260904131204 20 252 11.3 29.0 0.00 0.13 0.13 66 1015.1
20260904130704 20 275 8.0 16.1 0.00 0.13 0.13 69 1015.1
20260904130203 20 179 3.2 20.9 0.00 0.13 0.13 69 1014.9
20260904124703 20 270 8.0 20.9 0.00 0.13 0.13 71 1014.7
20260904124203 20 213 8.0 20.9 0.00 0.13 0.13 71 1014.7
20260904123703 20 276 11.3 29.0 0.00 0.13 0.13 70 1014.7
20260904123203 20 295 14.5 27.4 0.00 0.13 0.13 70 1014.6
20260904121704 20 243 9.7 22.5 0.00 0.13 0.13 70 1014.5
20260904121205 20 289 14.5 32.2 0.00 0.13 0.13 70 1014.4
20260904120703 20 231 9.7 25.7 0.00 0.13 0.13 71 1014.4
20260904120203 20 269 9.7 22.5 0.00 0.13 0.13 71 1014.3
20260904114703 20 249 8.0 24.1 0.00 0.13 0.13 71 1014.1
20260904114204 20 274 11.3 22.5 0.00 0.13 0.13 70 1014.0
20260904113703 20 210 8.0 25.7 0.00 0.13 0.13 72 1014.0
20260904113203 20 278 9.7 27.4 0.00 0.13 0.13 73 1013.9
20260904111704 20 265 9.7 16.1 0.00 0.13 0.13 73 1013.8
20260904111203 20 286 9.7 24.1 0.00 0.13 0.13 74 1013.7
20260904110204 20 256 4.8 27.4 0.00 0.13 0.13 75 1013.5
20260904104204 20 234 11.3 25.7 0.00 0.13 0.13 75 1013.5
20260904103705 20 294 19.3 29.0 0.00 0.13 0.13 76 1013.7
20260904103204 20 289 8.0 27.4 0.00 0.13 0.13 79 1013.5
20260904101705 20 243 9.7 25.7 0.00 0.13 0.13 80 1013.4
20260904101204 20 288 14.5 24.1 0.00 0.13 0.13 81 1013.3
20260904100705 20 244 4.8 16.1 0.00 0.13 0.13 83 1013.1
20260904100204 20 280 8.0 22.5 0.00 0.13 0.13 83 1013.1
20260904094204 19 268 11.3 24.1 0.00 0.13 0.13 87 1012.8
20260904093703 18 251 6.4 14.5 0.00 0.13 0.13 88 1012.7
20260904093204 18 201 4.8 22.5 0.00 0.13 0.13 90 1012.4
20260904091706 18 265 4.8 11.3 0.00 0.13 0.13 91 1012.5
20260904091204 18 258 4.8 19.3 0.00 0.13 0.13 92 1012.5
20260904090203 18 266 8.0 16.1 0.00 0.13 0.13 93 1012.6
20260904084705 18 268 3.2 8.0 0.00 0.13 0.13 93 1012.2
20260904084204 18 178 4.8 11.3 0.00 0.13 0.13 93 1012.3
20260904083704 18 256 4.8 14.5 0.03 0.13 0.13 93 1012.3
20260904083205 18 238 3.2 16.1 0.03 0.13 0.13 94 1012.1
20260904081704 18 280 9.7 20.9 0.13 0.13 0.13 93 1012.1
20260904080203 18 280 9.7 20.9 0.13 0.13 0.13 93 1012.1
20260904074704 18 284 12.9 20.9 0.13 0.13 0.13 93 1011.9
20260904074204 18 289 14.5 29.0 0.13 0.13 0.13 93 1011.8
20260904073703 18 287 14.5 27.4 0.10 0.10 0.10 93 1011.7
20260904073203 19 298 12.9 25.7 0.10 0.10 0.10 93 1011.5
20260904071203 19 179 9.7 20.9 0.00 0.00 0.00 92 1010.8
20260904070704 19 177 12.9 24.1 0.00 0.00 0.00 92 1010.7
20260904070204 19 200 12.9 33.8 0.00 0.00 0.00 92 1010.7
20260904064704 19 191 11.3 20.9 0.00 0.00 0.00 91 1010.5
20260904064204 20 176 12.9 24.1 0.00 0.00 0.00 91 1010.4
20260904063704 20 185 11.3 20.9 0.00 0.00 0.00 90 1010.6
20260904063204 20 188 11.3 29.0 0.00 0.00 0.00 90 1010.6
20260904061704 20 164 12.9 33.8 0.00 0.00 0.00 90 1010.6
20260904060703 20 182 14.5 35.4 0.00 0.00 0.00 90 1010.7
20260904060204 20 179 16.1 33.8 0.00 0.00 0.00 90 1010.8
20260904054703 19 184 14.5 27.4 0.00 0.00 0.00 90 1010.9
20260904054203 19 189 19.3 32.2 0.00 0.00 0.00 90 1010.9
20260904053704 19 181 14.5 25.7 0.00 0.00 0.00 91 1011.0
20260904053203 19 186 11.3 27.4 0.00 0.00 0.00 91 1011.2
20260904051704 19 180 14.5 20.9 0.00 0.00 0.00 91 1011.1
20260904051204 19 184 8.0 14.5 0.00 0.00 0.00 91 1011.2
20260904050704 19 197 11.3 24.1 0.00 0.00 0.00 91 1011.1
20260904050204 19 188 11.3 33.8 0.00 0.00 0.00 91 1011.1
20260904044706 20 178 9.7 14.5 0.00 0.00 0.00 91 1011.1
20260904044204 20 187 11.3 20.9 0.00 0.00 0.00 91 1011.2
20260904043703 20 177 12.9 25.7 0.00 0.00 0.00 91 1011.3
20260904043204 20 175 16.1 29.0 0.00 0.00 0.00 90 1011.4
20260904041204 20 178 19.3 32.2 0.00 0.00 0.00 90 1011.6
20260904040705 20 187 19.3 29.0 0.00 0.00 0.00 90 1011.6
20260904040204 20 175 11.3 38.6 0.00 0.00 0.00 90 1011.6
20260904034203 20 189 16.1 32.2 0.00 0.00 0.00 90 1011.6
20260904033703 20 180 16.1 25.7 0.00 0.00 0.00 90 1011.6
20260904033204 20 182 17.7 32.2 0.00 0.00 0.00 90 1011.7
20260904031704 19 202 9.7 33.8 0.00 0.00 0.00 90 1012.1
20260904031204 19 180 14.5 32.2 0.00 0.00 0.00 90 1012.2
20260904030204 19 193 11.3 33.8 0.00 0.00 0.00 90 1012.1
20260904024204 19 186 19.3 32.2 0.00 0.00 0.00 89 1012.2
20260904023204 19 182 14.5 33.8 0.00 0.00 0.00 89 1012.3
20260904020704 19 181 14.5 22.5 0.00 0.00 0.00 88 1012.5
20260904014703 19 183 17.7 27.4 0.00 0.00 0.00 88 1012.8
20260904014205 19 182 11.3 27.4 0.00 0.00 0.00 88 1013.0
20260904013704 19 208 11.3 29.0 0.00 0.00 0.00 87 1013.1
20260904013203 19 198 12.9 32.2 0.00 0.00 0.00 87 1013.0
20260904011704 19 177 19.3 27.4 0.00 0.00 0.00 87 1013.0
20260904010704 20 176 14.5 25.7 0.00 0.00 0.00 86 1013.1
20260904010204 20 182 17.7 29.0 0.00 0.00 0.00 86 1013.0
20260904004703 20 176 12.9 22.5 0.00 0.00 0.00 86 1013.4
20260904004204 20 164 19.3 38.6 0.00 0.00 0.00 86 1013.4
20260904003703 20 173 20.9 27.4 0.00 0.00 0.00 86 1013.4
20260904003204 19 178 11.3 25.7 0.00 0.00 0.00 86 1013.5
20260904001703 19 176 19.3 33.8 0.00 0.00 0.00 87 1013.9
20260904001203 19 177 9.7 29.0 0.00 0.00 0.00 87 1014.1
20260904000705 19 167 16.1 25.7 0.00 0.00 0.00 87 1014.2
20260904000204 19 177 14.5 29.0 0.00 0.00 0.00 87 1014.3
20260903234704 19 167 16.1 22.5 0.00 0.00 0.00 88 1014.5
20260903234204 19 183 14.5 24.1 0.00 0.00 0.00 88 1014.5
20260903233704 19 172 11.3 22.5 0.00 0.00 0.00 88 1014.6
20260903233204 19 178 14.5 27.4 0.00 0.00 0.00 88 1014.7
20260903231705 19 171 11.3 20.9 0.00 0.00 0.00 88 1014.9
20260903231204 19 184 9.7 16.1 0.00 0.00 0.00 88 1014.9
20260903230704 19 184 9.7 22.5 0.00 0.00 0.00 88 1015.0
20260903230204 19 183 12.9 22.5 0.00 0.00 0.00 88 1015.0
20260903224704 19 180 8.0 19.3 0.00 0.00 0.00 88 1015.2
20260903224204 19 196 9.7 16.1 0.00 0.00 0.00 88 1015.3
20260903223704 19 196 4.8 20.9 0.00 0.00 0.00 88 1015.3
20260903223204 19 173 8.0 22.5 0.00 0.00 0.00 87 1015.3
20260903221204 20 200 3.2 14.5 0.00 0.00 0.00 87 1015.4
20260903220704 20 182 3.2 11.3 0.00 0.00 0.00 86 1015.4
20260903220204 20 177 6.4 14.5 0.00 0.00 0.00 86 1015.5
20260903214704 20 179 6.4 11.3 0.00 0.00 0.00 85 1016.0
20260903214204 20 187 6.4 11.3 0.00 0.00 0.00 85 1016.1
20260903213704 20 185 6.4 20.9 0.00 0.00 0.00 85 1016.1
20260903213206 20 198 8.0 20.9 0.00 0.00 0.00 85 1016.1
20260903211204 20 206 4.8 27.4 0.00 0.00 0.00 85 1016.1
20260903210704 20 241 4.8 12.9 0.00 0.00 0.00 85 1016.1